Вернуться в каталог

STARLINK-37737

АктивенСвязьSSO
NORAD 69227·PAYLOAD·🇺🇸 United States

Запущен May 26, 2026 с Vandenberg Space Force Base

Loading…

Ближайшие Пролёты (ближайшие 24 часа)

TLE

СвежийSource: CelesTrak SupGP

Эпоха: Sep 15, 2026, 03:17 UTC

1 69227C 26115S   26258.13729167 -.00055487  00000+0 -17226-2 0  2588
2 69227  97.2833 274.3480 0001529  90.7271 175.6912 15.33464919    18

Отслеживайте STARLINK-37737 в реальном времени с AllMySat

Download on the App Store